HS3MXC-2 Weather Reports


time (UTC)temp
F
wind
direction
speed
knots
gust
knots
rain 1hr
in
rain 24hr
in
rain mn
in
humidity
%
barometer
mb
20260504172713 84 0.0 0.0 0.00 0.00 0.00 69 997.2
20260504172205 84 0.0 0.0 0.00 0.00 0.00 69 997.2
20260504171151 84 0.0 0.0 0.00 0.00 0.00 69 997.3
20260504170644 84 0.0 0.0 0.00 0.00 0.00 69 997.3
20260504141141 85 0.0 0.0 0.00 0.00 0.00 67 996.7
20260504140629 85 0.0 0.0 0.00 0.00 0.00 67 996.7
20260504140119 85 0.0 0.0 0.00 0.00 0.00 67 996.6
20260504130429 86 0.0 0.0 0.00 0.00 0.00 66 996.7
20260504120240 87 0.0 0.0 0.00 0.00 0.00 64 996.4
20260504110108 89 0.0 0.0 0.00 0.00 0.00 62 996.3
20260504100449 92 0.0 0.0 0.00 0.00 0.00 59 993.7
20260504081655 94 0.0 0.0 0.00 0.00 0.00 57 993.6
20260504081146 94 0.0 0.0 0.00 0.00 0.00 57 993.7
20260504050159 91 0.0 0.0 0.00 0.00 0.00 60 997.7
20260504045652 91 0.0 0.0 0.00 0.00 0.00 60 997.9
20260504044637 91 0.0 0.0 0.00 0.00 0.00 60 998.0
20260504044130 91 0.0 0.0 0.00 0.00 0.00 60 998.1
20260504043624 90 0.0 0.0 0.00 0.00 0.00 60 998.1
20260504043117 90 0.0 0.0 0.00 0.00 0.00 61 998.1
20260504042610 90 0.0 0.0 0.00 0.00 0.00 61 998.2
20260504042103 90 0.0 0.0 0.00 0.00 0.00 61 998.2
20260504041556 90 0.0 0.0 0.00 0.00 0.00 62 998.2
20260504041048 89 0.0 0.0 0.00 0.00 0.00 62 998.2
20260504040541 89 0.0 0.0 0.00 0.00 0.00 62 998.3
20260504040035 89 0.0 0.0 0.00 0.00 0.00 62 998.3
20260504035528 89 0.0 0.0 0.00 0.00 0.00 62 998.4
20260504035022 89 0.0 0.0 0.00 0.00 0.00 62 998.5
20260504034516 89 0.0 0.0 0.00 0.00 0.00 62 998.6
20260504034006 89 0.0 0.0 0.00 0.00 0.00 63 998.7
20260504032950 88 0.0 0.0 0.00 0.00 0.00 64 998.8
20260504032443 88 0.0 0.0 0.00 0.00 0.00 64 998.9
20260504031936 88 0.0 0.0 0.00 0.00 0.00 64 999.0
20260504031430 88 0.0 0.0 0.00 0.00 0.00 64 999.2
20260504030414 87 0.0 0.0 0.00 0.00 0.00 65 999.4
20260504025907 87 0.0 0.0 0.00 0.00 0.00 66 999.5
20260504025400 87 0.0 0.0 0.00 0.00 0.00 66 999.5
20260504024852 86 0.0 0.0 0.00 0.00 0.00 66 999.5
20260504024345 86 0.0 0.0 0.00 0.00 0.00 66 999.5
20260504023839 86 0.0 0.0 0.00 0.00 0.00 66 999.6
20260504023326 86 0.0 0.0 0.00 0.00 0.00 66 999.6
20260504022819 86 0.0 0.0 0.00 0.00 0.00 67 999.7
20260504022312 86 0.0 0.0 0.00 0.00 0.00 67 999.7
20260504021805 85 0.0 0.0 0.00 0.00 0.00 68 999.7
20260504021300 85 0.0 0.0 0.00 0.00 0.00 68 999.6
20260504020752 85 0.0 0.0 0.00 0.00 0.00 68 999.6
20260504020246 85 0.0 0.0 0.00 0.00 0.00 68 999.6
20260504015739 85 0.0 0.0 0.00 0.00 0.00 69 999.5
20260504015231 85 0.0 0.0 0.00 0.00 0.00 69 999.5
20260504014724 85 0.0 0.0 0.00 0.00 0.00 69 999.4
20260504014218 85 0.0 0.0 0.00 0.00 0.00 69 999.3
20260504013202 85 0.0 0.0 0.00 0.00 0.00 70 999.2
20260504012655 84 0.0 0.0 0.00 0.00 0.00 70 999.1
20260504011641 84 0.0 0.0 0.00 0.00 0.00 70 999.0
20260504011135 84 0.0 0.0 0.00 0.00 0.00 70 998.9
20260504010628 84 0.0 0.0 0.00 0.00 0.00 70 998.7
20260504010112 84 0.0 0.0 0.00 0.00 0.00 70 998.7
20260504005518 84 0.0 0.0 0.00 0.00 0.00 70 998.6
20260504005009 84 0.0 0.0 0.00 0.00 0.00 71 998.5
20260504004501 84 0.0 0.0 0.00 0.00 0.00 71 998.4
20260504003954 84 0.0 0.0 0.00 0.00 0.00 71 998.4
20260504002938 84 0.0 0.0 0.00 0.00 0.00 71 998.3
20260504000908 84 0.0 0.0 0.00 0.00 0.00 71 998.0
20260504000401 84 0.0 0.0 0.00 0.00 0.00 71 998.0
20260503235854 84 0.0 0.0 0.00 0.00 0.00 72 997.8
20260503235343 83 0.0 0.0 0.00 0.00 0.00 72 997.7
20260503234833 83 0.0 0.0 0.00 0.00 0.00 72 997.7
20260503234326 83 0.0 0.0 0.00 0.00 0.00 72 997.7
20260503233819 83 0.0 0.0 0.00 0.00 0.00 72 997.6
20260503233311 83 0.0 0.0 0.00 0.00 0.00 72 997.5
20260503232804 83 0.0 0.0 0.00 0.00 0.00 72 997.5
20260503232257 84 0.0 0.0 0.00 0.00 0.00 72 997.5
20260503231743 83 0.0 0.0 0.00 0.00 0.00 72 997.3
20260503231236 84 0.0 0.0 0.00 0.00 0.00 72 997.1
20260503230730 84 0.0 0.0 0.00 0.00 0.00 72 997.1
20260503230222 84 0.0 0.0 0.00 0.00 0.00 72 996.9
20260503225208 84 0.0 0.0 0.00 0.00 0.00 72 996.9
20260503224701 84 0.0 0.0 0.00 0.00 0.00 72 996.8
20260503223646 84 0.0 0.0 0.00 0.00 0.00 72 996.8
20260503223139 84 0.0 0.0 0.00 0.00 0.00 72 996.7
20260503222632 84 0.0 0.0 0.00 0.00 0.00 72 996.6
20260503222126 84 0.0 0.0 0.00 0.00 0.00 72 996.5
20260503221619 84 0.0 0.0 0.00 0.00 0.00 72 996.5
20260503221112 84 0.0 0.0 0.00 0.00 0.00 72 996.5
20260503220605 84 0.0 0.0 0.00 0.00 0.00 72 996.5
20260503220057 84 0.0 0.0 0.00 0.00 0.00 72 996.5
20260503215551 84 0.0 0.0 0.00 0.00 0.00 72 996.5
20260503215042 84 0.0 0.0 0.00 0.00 0.00 72 996.5
20260503214534 84 0.0 0.0 0.00 0.00 0.00 72 996.5
20260503214027 84 0.0 0.0 0.00 0.00 0.00 72 996.5
20260503213521 84 0.0 0.0 0.00 0.00 0.00 72 996.4
20260503213009 84 0.0 0.0 0.00 0.00 0.00 72 996.2
20260503212502 84 0.0 0.0 0.00 0.00 0.00 71 996.2
20260503211954 84 0.0 0.0 0.00 0.00 0.00 71 996.2
20260503211447 84 0.0 0.0 0.00 0.00 0.00 71 996.2
20260503210940 84 0.0 0.0 0.00 0.00 0.00 71 996.2
20260503210434 84 0.0 0.0 0.00 0.00 0.00 71 996.1
20260503205420 84 0.0 0.0 0.00 0.00 0.00 71 996.2
20260503204911 84 0.0 0.0 0.00 0.00 0.00 71 996.2
20260503204404 84 0.0 0.0 0.00 0.00 0.00 71 996.1
20260503203857 84 0.0 0.0 0.00 0.00 0.00 71 996.1
20260503203350 84 0.0 0.0 0.00 0.00 0.00 71 996.1
20260503202841 84 0.0 0.0 0.00 0.00 0.00 71 996.2
20260503202332 84 0.0 0.0 0.00 0.00 0.00 71 996.2
20260503201825 84 0.0 0.0 0.00 0.00 0.00 71 996.2
20260503201318 84 0.0 0.0 0.00 0.00 0.00 71 996.1
20260503200811 84 0.0 0.0 0.00 0.00 0.00 71 996.1
20260503200303 84 0.0 0.0 0.00 0.00 0.00 71 996.2
20260503195757 84 0.0 0.0 0.00 0.00 0.00 71 996.1
20260503195249 85 0.0 0.0 0.00 0.00 0.00 71 996.2
20260503194742 84 0.0 0.0 0.00 0.00 0.00 71 996.2
20260503194234 84 0.0 0.0 0.00 0.00 0.00 71 996.1
20260503193218 85 0.0 0.0 0.00 0.00 0.00 71 996.0
20260503192712 85 0.0 0.0 0.00 0.00 0.00 71 995.9
20260503192205 84 0.0 0.0 0.00 0.00 0.00 71 995.9
20260503191654 85 0.0 0.0 0.00 0.00 0.00 71 995.8
20260503191146 85 0.0 0.0 0.00 0.00 0.00 71 995.7
20260503190638 85 0.0 0.0 0.00 0.00 0.00 71 995.7
20260503190131 85 0.0 0.0 0.00 0.00 0.00 71 995.6
20260503185624 85 0.0 0.0 0.00 0.00 0.00 70 995.7
20260503185117 85 0.0 0.0 0.00 0.00 0.00 70 995.6
20260503184610 85 0.0 0.0 0.00 0.00 0.00 71 995.5
20260503184104 85 0.0 0.0 0.00 0.00 0.00 71 995.5
20260503183556 85 0.0 0.0 0.00 0.00 0.00 71 995.5
20260503182036 85 0.0 0.0 0.00 0.00 0.00 71 995.5
20260503181529 85 0.0 0.0 0.00 0.00 0.00 70 995.6
20260503181023 85 0.0 0.0 0.00 0.00 0.00 71 995.5
20260503180515 85 0.0 0.0 0.00 0.00 0.00 70 995.5
20260503175457 85 0.0 0.0 0.00 0.00 0.00 71 995.5
20260503174950 85 0.0 0.0 0.00 0.00 0.00 70 995.6
20260503174443 85 0.0 0.0 0.00 0.00 0.00 71 995.8
20260503173936 85 0.0 0.0 0.00 0.00 0.00 70 995.9
20260503173429 85 0.0 0.0 0.00 0.00 0.00 71 996.0
20260503172922 85 0.0 0.0 0.00 0.00 0.00 70 996.0